Flag for U.S.A. Weather past 2 weeks in Santa Cruz, California, U.S.A.

Now
58 °F

Clear.


Feels Like: 58 °F
Forecast: 61 / 76 °F
Wind: 5 mph from Northwest

Location: Watsonville Municipal Airport

Current Time: Aug 30, 2015 at 5:17:02 AM

Latest Report: Aug 30, 2015 at 4:53 AM


Visibility: 10 mi

Pressure: 30.01 "Hg

Humidity: 84%

Dew point: 53 °F

Location of Santa CruzLocation

Historic Weather in Santa Cruz — Graph

°F

Santa Cruz temperature yesterday

Maximum temperature yesterday: 80 °F (at 11:53 AM)
Minimum temperature yesterday: 63 °F (at 2:53 AM)
Average temperature yesterday: 70 °F

Past Weeks' High & Low Weather Summary

 TemperatureHumidityPressure
High100 °F (Aug 15, 2:53 PM)93% (Aug 17, 3:53 AM)30.05 "Hg (Aug 17, 3:53 AM)
Low56 °F (Aug 24, 6:53 AM)16% (Aug 15, 4:53 PM)29.84 "Hg (Aug 16, 3:53 PM)
Average68 °F69%29.94 "Hg
* Reported Aug 15 3:53 AM — Aug 30 3:53 AM, Santa Cruz, Weather by CustomWeather, © 2015

Note: Actual official high and low records may vary slightly from our data, if they occured in-between our weather recording intervals... More about our weather records

Advertising

Santa Cruz weather history for previous 24 hours

 ConditionsComfort  
Time TempWeatherWind HumidityBarometerVisibility
3:53 AM
Sun, Aug 30
59 °FClear.3 mph84%30.01 "Hg10 mi
2:53 AM59 °FClear.3 mph84%30.00 "Hg10 mi
1:53 AM60 °FClear.No wind83%30.01 "Hg10 mi
12:53 AM62 °FClear.5 mph80%30.00 "Hg10 mi
11:53 PM
Sat, Aug 29
63 °FClear.No wind81%30.00 "Hg10 mi
10:53 PM65 °FClear.No wind78%30.00 "Hg10 mi
9:53 PM66 °FClear.No wind78%29.99 "Hg10 mi
8:53 PM67 °FClear.6 mph76%29.98 "Hg10 mi
7:53 PM71 °FSunny.8 mph63%29.95 "Hg10 mi
6:53 PM78 °FSunny.5 mph50%29.95 "Hg10 mi
5:53 PM78 °FSunny.5 mph54%29.96 "Hg10 mi
4:53 PM75 °FSunny.8 mph62%29.97 "Hg10 mi
3:53 PM77 °FSunny.15 mph62%29.98 "Hg10 mi
2:53 PM79 °FSunny.12 mph60%29.98 "Hg10 mi
1:53 PM79 °FSunny.15 mph62%29.99 "Hg10 mi
12:53 PM80 °FSunny.14 mph58%29.99 "Hg10 mi
11:53 AM80 °FSunny.10 mph56%30.00 "Hg10 mi
10:53 AM78 °FSunny.7 mph58%30.00 "Hg10 mi
9:53 AM72 °FOvercast.No wind68%29.99 "Hg10 mi
8:53 AM67 °FOvercast.No wind79%30.00 "Hg10 mi
7:53 AM64 °FLow clouds.No wind87%30.00 "Hg10 mi
6:53 AM63 °FFog.No wind93%29.98 "Hg3 mi
5:53 AM63 °FFog.No wind90%29.96 "Hg1 mi
Weather by CustomWeather, © 2015

See weather overviewHow to use our weather pages